timestamp,surface_pressure_avg,surface_temp_avg,battery_voltage,lat,long
2021-01-03 00:09:01+00:00,272.913,3.12,12.65,47.84626,-54.09684
2021-01-03 00:19:01+00:00,282.433,2.7,12.57,47.84626,-54.09684
2021-01-03 00:29:01+00:00,291.5613,3.05,12.57,47.84626,-54.09684
2021-01-03 00:39:01+00:00,290.2731,3.98,12.57,47.84626,-54.09684
2021-01-03 00:49:01+00:00,281.2198,4.1,12.57,47.84626,-54.09684
2021-01-03 00:59:01+00:00,297.343,4.1,12.57,47.84626,-54.09684
2021-01-03 01:09:01+00:00,312.3464,4.1,12.57,47.84626,-54.09684
2021-01-03 01:19:01+00:00,309.353,4.12,12.57,47.84626,-54.09684
2021-01-03 01:29:01+00:00,298.3397,4.19,12.57,47.84626,-54.09684
2021-01-03 01:39:01+00:00,301.7763,4.19,12.57,47.84626,-54.09684
2021-01-03 01:49:01+00:00,312.2897,4.2,12.57,47.84626,-54.09684
2021-01-03 01:59:01+00:00,311.0312,4.2,12.57,47.84626,-54.09684
2021-01-03 02:09:01+00:00,314.2913,4.2,12.57,47.84626,-54.09684
2021-01-03 02:19:01+00:00,325.838,4.2,12.57,47.84626,-54.09684
2021-01-03 02:29:01+00:00,325.8596,4.1,12.57,47.84626,-54.09684
2021-01-03 02:39:01+00:00,322.8997,4.0,12.57,47.84626,-54.09684
2021-01-03 02:49:01+00:00,323.6229,3.9,12.57,47.84626,-54.09684
2021-01-03 02:59:01+00:00,327.1846,3.92,12.57,47.84626,-54.09684
2021-01-03 03:09:01+00:00,323.828,4.0,12.57,47.84626,-54.09684
2021-01-03 03:19:01+00:00,321.5963,3.9,12.57,47.84626,-54.09684
2021-01-03 03:29:01+00:00,316.2297,3.8,12.57,47.84626,-54.09684
2021-01-03 03:39:01+00:00,309.528,3.85,12.57,47.84626,-54.09684
2021-01-03 03:49:01+00:00,316.118,3.9,12.57,47.84626,-54.09684
2021-01-03 03:59:01+00:00,320.77299999999997,3.84,12.57,47.84626,-54.09684
2021-01-03 04:09:01+00:00,322.6796,3.86,12.57,47.84626,-54.09684
2021-01-03 04:19:01+00:00,321.2463,3.88,12.57,47.84626,-54.09684
2021-01-03 04:29:01+00:00,314.6246,3.27,12.57,47.84626,-54.09684
2021-01-03 04:39:01+00:00,295.5714,3.3,12.57,47.84626,-54.09684
2021-01-03 04:49:01+00:00,280.5547,3.3,12.57,47.84626,-54.09684
2021-01-03 04:59:01+00:00,271.4648,3.4,12.57,47.84626,-54.09684
2021-01-03 05:09:01+00:00,270.523,2.9,12.57,47.84626,-54.09684
2021-01-03 05:19:01+00:00,263.0181,2.6,12.57,47.84626,-54.09684
2021-01-03 05:29:01+00:00,255.8448,2.4,12.57,47.84626,-54.09684
2021-01-03 05:39:01+00:00,252.5214,2.42,12.57,47.84626,-54.09684
2021-01-03 05:49:01+00:00,248.9881,2.4,12.57,47.84626,-54.09684
2021-01-03 05:59:01+00:00,239.5564,2.3,12.57,47.84626,-54.09684
2021-01-03 06:09:01+00:00,230.8281,2.2,12.57,47.84626,-54.09684
2021-01-03 06:19:01+00:00,232.7765,2.23,12.57,47.84626,-54.09684
2021-01-03 06:29:01+00:00,224.8199,2.2,12.57,47.84626,-54.09684
2021-01-03 06:39:01+00:00,213.0414,2.1,12.57,47.84626,-54.09684
2021-01-03 06:49:01+00:00,207.7481,2.1,12.57,47.84626,-54.09684
2021-01-03 06:59:01+00:00,200.9148,2.1,12.57,47.84626,-54.09684
2021-01-03 07:09:01+00:00,183.8264,2.1,12.57,47.84626,-54.09684
2021-01-03 07:19:01+00:00,178.1348,2.1,12.57,47.84626,-54.09684
2021-01-03 07:29:01+00:00,189.9565,2.1,12.57,47.84626,-54.09684
2021-01-03 07:39:01+00:00,192.8081,2.1,12.57,47.84626,-54.09684
2021-01-03 07:49:01+00:00,187.4781,2.1,12.57,47.84626,-54.09684
2021-01-03 07:59:01+00:00,186.3915,2.45,12.57,47.84626,-54.09684
2021-01-03 08:09:01+00:00,187.2831,2.6,12.57,47.84626,-54.09684
2021-01-03 08:19:01+00:00,188.0514,2.4,12.57,47.84626,-54.09684
2021-01-03 08:29:01+00:00,194.5648,2.19,12.57,47.84626,-54.09684
2021-01-03 08:39:01+00:00,201.3631,2.09,12.57,47.84626,-54.09684
2021-01-03 08:49:01+00:00,201.0715,2.39,12.57,47.84626,-54.09684
2021-01-03 08:59:01+00:00,196.4149,2.2,12.57,47.84626,-54.09684
2021-01-03 09:09:01+00:00,202.4564,2.13,12.57,47.84626,-54.09684
2021-01-03 09:19:01+00:00,209.8031,2.12,12.57,47.84626,-54.09684
2021-01-03 09:29:01+00:00,209.8598,2.13,12.57,47.84626,-54.09684
2021-01-03 09:39:01+00:00,218.9914,2.2,12.57,47.84626,-54.09684
2021-01-03 09:49:01+00:00,229.4247,2.45,12.57,47.84626,-54.09684
2021-01-03 09:59:01+00:00,230.898,2.86,12.57,47.84626,-54.09684
2021-01-03 10:09:01+00:00,243.7664,2.38,12.57,47.84626,-54.09684
2021-01-03 10:19:01+00:00,261.9347,2.55,12.57,47.84626,-54.09684
2021-01-03 10:29:01+00:00,263.4664,2.0,12.57,47.84626,-54.09684
2021-01-03 10:39:01+00:00,257.5064,2.34,12.57,47.84626,-54.09684
2021-01-03 10:49:01+00:00,260.9614,3.57,12.57,47.84626,-54.09684
2021-01-03 10:59:01+00:00,269.8614,2.82,12.57,47.84626,-54.09684
2021-01-03 11:09:01+00:00,268.118,1.38,12.57,47.84626,-54.09684
2021-01-03 11:19:01+00:00,268.843,1.48,12.57,47.84626,-54.09684
2021-01-03 11:29:01+00:00,278.4248,2.3,12.57,47.84626,-54.09684
2021-01-03 11:39:01+00:00,290.8197,2.9,12.57,47.84626,-54.09684
2021-01-03 11:49:01+00:00,293.7147,2.86,12.57,47.84626,-54.09684
2021-01-03 11:59:01+00:00,297.1897,2.8,12.57,47.84626,-54.09684
2021-01-03 12:09:01+00:00,303.45799999999997,2.88,12.57,47.84626,-54.09684
2021-01-03 12:19:01+00:00,309.993,3.12,12.57,47.84626,-54.09684
2021-01-03 12:29:01+00:00,310.0897,3.1,12.57,47.84626,-54.09684
2021-01-03 12:39:01+00:00,323.418,3.15,12.57,47.84626,-54.09684
2021-01-03 12:49:01+00:00,339.7963,3.3,12.57,47.84626,-54.09684
2021-01-03 12:59:01+00:00,339.2413,3.3,12.57,47.84626,-54.09684
2021-01-03 13:09:01+00:00,338.853,3.39,12.57,47.84626,-54.09684
2021-01-03 13:19:01+00:00,353.533,3.4,12.57,47.84626,-54.09684
2021-01-03 13:29:01+00:00,364.6646,3.4,12.57,47.84626,-54.09684
2021-01-03 13:39:01+00:00,359.8531,3.3,12.57,47.84626,-54.09684
2021-01-03 13:49:01+00:00,356.9213,3.3,12.57,47.84626,-54.09684
2021-01-03 13:59:01+00:00,367.1245,3.4,12.57,47.84626,-54.09684
2021-01-03 14:09:01+00:00,369.5846,3.4,12.57,47.84626,-54.09684
2021-01-03 14:19:01+00:00,372.6579,3.4,12.65,47.84626,-54.09684
2021-01-03 14:29:01+00:00,375.9979,3.5,12.65,47.84626,-54.09684
2021-01-03 14:39:01+00:00,375.6111,3.49,12.65,47.84626,-54.09684
2021-01-03 14:49:01+00:00,376.7629,3.4,12.65,47.84626,-54.09684
2021-01-03 14:59:01+00:00,373.6579,3.35,12.65,47.84626,-54.09684
2021-01-03 15:09:01+00:00,365.8379,3.3,12.65,47.84626,-54.09684
2021-01-03 15:19:01+00:00,364.9347,3.3,13.21,47.84626,-54.09684
2021-01-03 15:29:01+00:00,366.3413,3.2,13.21,47.84626,-54.09684
2021-01-03 15:39:01+00:00,360.7996,3.2,13.21,47.84626,-54.09684
2021-01-03 15:49:01+00:00,352.2679,3.2,13.21,47.84626,-54.09684
2021-01-03 15:59:01+00:00,362.8696,3.2,13.21,47.84626,-54.09684
2021-01-03 16:09:01+00:00,360.9597,3.29,13.21,47.84626,-54.09684
2021-01-03 16:19:01+00:00,344.588,3.3,13.37,47.84626,-54.09684
2021-01-03 16:29:01+00:00,342.3229,3.3,13.37,47.84626,-54.09684
2021-01-03 16:39:01+00:00,349.4729,3.31,13.37,47.84626,-54.09684
2021-01-03 16:49:01+00:00,336.0163,3.28,13.37,47.84626,-54.09684
2021-01-03 16:59:01+00:00,319.063,3.2,13.37,47.84626,-54.09684
2021-01-03 17:09:01+00:00,319.193,3.2,13.37,47.84626,-54.09684
2021-01-03 17:19:01+00:00,311.4613,3.2,13.44,47.84626,-54.09684
2021-01-03 17:29:01+00:00,293.3314,3.29,13.44,47.84626,-54.09684
2021-01-03 17:39:01+00:00,288.4598,3.3,13.44,47.84626,-54.09684
2021-01-03 17:49:01+00:00,289.1281,3.29,13.44,47.84626,-54.09684
2021-01-03 17:59:01+00:00,275.4314,3.26,13.44,47.84626,-54.09684
2021-01-03 18:09:01+00:00,263.0581,3.14,13.44,47.84626,-54.09684
2021-01-03 18:19:01+00:00,258.7647,3.27,13.44,47.84626,-54.09684
2021-01-03 18:29:01+00:00,249.7297,3.3,13.44,47.84626,-54.09684
2021-01-03 18:39:01+00:00,235.8114,3.27,13.44,47.84626,-54.09684
2021-01-03 18:49:01+00:00,232.1115,3.2,13.44,47.84626,-54.09684
2021-01-03 18:59:01+00:00,228.2531,3.18,13.44,47.84626,-54.09684
2021-01-03 19:09:01+00:00,215.6098,3.19,13.44,47.84626,-54.09684
2021-01-03 19:19:01+00:00,204.1748,3.2,13.05,47.84626,-54.09684
2021-01-03 19:29:01+00:00,205.0431,3.2,13.05,47.84626,-54.09684
2021-01-03 19:39:01+00:00,201.9531,3.14,13.05,47.84626,-54.09684
2021-01-03 19:49:01+00:00,197.5598,3.1,13.05,47.84626,-54.09684
2021-01-03 19:59:01+00:00,197.3615,3.05,13.05,47.84626,-54.09684
2021-01-03 20:09:01+00:00,191.7132,2.87,13.05,47.84626,-54.09684
2021-01-03 20:19:01+00:00,187.9214,2.8,12.81,47.84626,-54.09684
2021-01-03 20:29:01+00:00,194.3715,2.8,12.81,47.84626,-54.09684
2021-01-03 20:39:01+00:00,196.2681,2.8,12.81,47.84626,-54.09684
2021-01-03 20:49:01+00:00,189.7215,2.82,12.81,47.84626,-54.09684
2021-01-03 20:59:01+00:00,190.1298,2.9,12.81,47.84626,-54.09684
2021-01-03 21:09:01+00:00,198.3164,2.9,12.81,47.84626,-54.09684
2021-01-03 21:19:01+00:00,198.4265,3.0,12.73,47.84626,-54.09684
2021-01-03 21:29:01+00:00,196.9332,3.0,12.73,47.84626,-54.09684
2021-01-03 21:39:01+00:00,205.1731,3.0,12.73,47.84626,-54.09684
2021-01-03 21:49:01+00:00,210.2631,3.0,12.73,47.84626,-54.09684
2021-01-03 21:59:01+00:00,211.6631,2.9,12.73,47.84626,-54.09684
2021-01-03 22:09:01+00:00,214.5114,2.7,12.73,47.84626,-54.09684
2021-01-03 22:19:01+00:00,219.8748,2.79,12.65,47.84626,-54.09684
2021-01-03 22:29:01+00:00,229.3347,2.8,12.65,47.84626,-54.09684
2021-01-03 22:39:01+00:00,235.6431,2.8,12.65,47.84626,-54.09684
2021-01-03 22:49:01+00:00,242.1648,2.8,12.65,47.84626,-54.09684
2021-01-03 22:59:01+00:00,247.1914,2.8,12.65,47.84626,-54.09684
2021-01-03 23:09:01+00:00,250.428,3.5,12.65,47.84626,-54.09684
2021-01-03 23:19:01+00:00,252.4564,4.09,12.65,47.84626,-54.09684
2021-01-03 23:29:01+00:00,253.8848,4.2,12.65,47.84626,-54.09684
2021-01-03 23:39:01+00:00,256.4897,4.2,12.65,47.84626,-54.09684
2021-01-03 23:49:01+00:00,261.4898,4.2,12.65,47.84626,-54.09684
2021-01-03 23:59:01+00:00,268.2264,4.2,12.65,47.84626,-54.09684
